Flag for United Kingdom Weather past 2 weeks in Birmingham, England, United Kingdom

Now
41 °F

Passing clouds.


Feels Like: 33 °F
Forecast: 41 / 48 °F
Wind: 14 mph from Northwest

Location: Birmingham / Airport

Current Time: Apr 1, 2015 at 1:51:43 AM

Latest Report: Apr 1, 2015 at 1:20 AM


Visibility: N/A

Pressure: 30.07 "Hg

Humidity: 61%

Dew point: 28 °F

Location of BirminghamLocation

Historic Weather in Birmingham — Graph

°F

Birmingham temperature yesterday

Maximum temperature yesterday: 52 °F (at 12:20 AM)
Minimum temperature yesterday: 41 °F (at 8:50 PM)
Average temperature yesterday: 47 °F

Past Weeks' High & Low Weather Summary

 TemperatureHumidityPressure
High57 °F (Mar 28, 12:50 PM)100% (Mar 17, 1:20 AM)30.57 "Hg (Mar 17, 1:20 AM)
Low30 °F (Mar 25, 5:20 AM)41% (Mar 31, 3:50 PM)29.24 "Hg (Mar 29, 11:50 AM)
Average44 °F74%30.01 "Hg
* Reported Mar 16 11:20 PM — Apr 1 12:20 AM, Birmingham, Weather by CustomWeather, © 2015

Note: Actual official high and low records may vary slightly from our data, if they occured in-between our weather recording intervals... More about our weather records

Advertising

Birmingham weather history for previous 24 hours

 ConditionsComfort  
Time TempWeatherWind HumidityBarometerVisibility
12:20 AM
Wed, Apr 1
41 °FPassing clouds.17 mph57%30.07 "HgN/A
11:50 PM
Tue, Mar 31
41 °FClear.16 mph57%30.04 "Hg10 mi
11:20 PM41 °FClear.14 mph61%30.04 "Hg10 mi
10:50 PM43 °FPassing clouds.18 mph57%30.01 "HgN/A
10:20 PM41 °FClear.13 mph70%30.01 "Hg10 mi
9:50 PM41 °FClear.13 mph70%30.01 "Hg10 mi
9:20 PM41 °FClear.15 mph70%29.98 "Hg10 mi
8:50 PM41 °FPassing clouds.15 mph70%29.98 "HgN/A
8:20 PM43 °FSprinkles. Scattered clouds.16 mph71%29.98 "HgN/A
7:50 PM43 °FScattered showers. Partly sunny.14 mph66%29.95 "HgN/A
7:20 PM43 °FScattered showers. Scattered clouds.12 mph71%29.95 "HgN/A
6:50 PM43 °FSprinkles. Scattered clouds.15 mph71%29.95 "HgN/A
6:20 PM45 °FSprinkles. Partly sunny.18 mph66%29.92 "HgN/A
5:50 PM45 °FSleet. Broken clouds.18 mph71%29.92 "HgN/A
5:20 PM46 °FPassing clouds.20 mph53%29.89 "HgN/A
4:50 PM46 °FScattered showers. Scattered clouds.18 mph62%29.89 "HgN/A
4:20 PM43 °FScattered clouds.20 mph81%29.89 "HgN/A
3:50 PM52 °FSprinkles. Partly sunny.23 mph41%29.83 "HgN/A
3:20 PM50 °FScattered showers. Scattered clouds.23 mph43%29.83 "HgN/A
2:50 PM50 °FScattered showers. Scattered clouds.23 mph47%29.83 "HgN/A
2:20 PM48 °FScattered showers. Passing clouds.21 mph58%29.83 "HgN/A
1:50 PM48 °FSprinkles. Scattered clouds.24 mph58%29.80 "HgN/A
1:20 PM50 °FSprinkles. Broken clouds.21 mph50%29.80 "HgN/A
12:50 PM50 °FScattered showers. Scattered clouds.20 mph54%29.80 "HgN/A
12:20 PM50 °FScattered showers. Scattered clouds.23 mph50%29.77 "HgN/A
11:50 AM50 °FScattered showers. Scattered clouds.21 mph50%29.77 "HgN/A
11:20 AM50 °FScattered clouds.24 mph47%29.74 "HgN/A
10:50 AM48 °FScattered clouds.22 mph54%29.74 "HgN/A
10:20 AM48 °FScattered clouds.17 mph58%29.74 "HgN/A
9:50 AM48 °FScattered clouds.22 mph54%29.71 "HgN/A
9:20 AM46 °FScattered clouds.21 mph66%29.68 "HgN/A
8:50 AM45 °FScattered clouds.21 mph76%29.65 "HgN/A
8:20 AM46 °FPassing clouds.18 mph71%29.62 "HgN/A
7:50 AM46 °FScattered showers. Scattered clouds.17 mph76%29.59 "HgN/A
7:20 AM46 °FPassing clouds.17 mph76%29.56 "HgN/A
6:50 AM46 °FLight rain. Partly cloudy.20 mph76%29.50 "Hg3 mi
6:20 AM48 °FPassing clouds.21 mph66%29.47 "HgN/A
5:50 AM48 °FPartly cloudy.22 mph66%29.45 "HgN/A
5:20 AM48 °FPartly cloudy.20 mph66%29.45 "HgN/A
4:50 AM48 °FPartly cloudy.24 mph66%29.42 "HgN/A
4:20 AM48 °FPartly cloudy.18 mph66%29.42 "HgN/A
3:50 AM50 °FPartly cloudy.18 mph67%29.39 "HgN/A
3:20 AM50 °FPassing clouds.24 mph62%29.36 "HgN/A
2:50 AM50 °FPartly cloudy.23 mph71%29.36 "HgN/A
2:20 AM52 °FLight rain. Partly cloudy.23 mph72%29.33 "HgN/A
1:50 AM52 °FPassing clouds.20 mph82%29.33 "HgN/A
1:20 AM52 °FRain. Partly cloudy.16 mph88%29.33 "Hg2 mi
Weather by CustomWeather, © 2015

See weather overviewHow to use our weather pages